SCP
0 0 0 0 0 0 0 0 0 0 0 0 0 0 0 0 0 0 0 0 0 0 0 0 0 0 0 0 0 0 0 0 0 0 0 0 0 0 0 0 0 0 0 0 0 0 0 0 0
0 0 0 0 0 0 0 0 0 0 0 0 0 0 0 0 0 0 0 0 0 0 0 0 0 0 0 0 0 0 0 0 0 0 0 0 0 0 0 0 0 0 0 0 0 0 0 0 0
0 0 0 0 0 0 0 0 0 0 0 0 0 0 0 0 0 0 0 0 0 0 0 0 0 0 0 0 0 0 0 0 0 0 0 0 0 0 0 0 0 0 0 0 0 0 0 0 0
0 0 0 0 0 0 0 0 0 0 0 0 0 0 0 0 0 0 0 0 0 0 0 0 0 0 0 0 0 0 0 0 0 0 0 0 0 0 0 0 0 0 0 0 0 0 0 0 0
0 0 0 0 0 0 0 0 0 0 0 0 0 0 0 0 0 0 0 0 0 0 0 0 0 0 0 0 0 0 0 0 0 0 0 0 0 0 0 0 0 0 0 0 0 0 0 0 0
0 0 0 0 0 0 0 0 0 0 0 0 0 0 0 0 0 0 0 0 0 0 0 0 0 0 0 0 0 0 0 0 0 0 0 0 0 0 0 0 0 0 0 0 0 0 0 0 0
0 0 0 0 0 0 0 0 0 0 0 0 0 0 0 0 0 0 0 0 0 0 0 0 0 0 0 0 0 0 0 0 0 0 0 0 0 0 0 0 0 0 0 0 0 0 0 0 0
0 0 0 0 0 0 0 0 0 0 0 0 0 0 0 0 0 0 0 0 0 0 0 0 0 0 0 0 0 0 0 0 0 0 0 0 0 0 0 0 0 0 0 0 0 0 0 0 0
0 0 0 0 0 0 0 0 0 0 0 0 0 0 0 0 0 0 0 0 0 0 0 0 0 0 0 0 0 0 0 0 0 0 0 0 0 0 0 0 0 0 0 0 0 0 0 0 0
0 0 0 0 0 0 0 0 0 0 0 0 0 0 0 0 0 0 0 0 0 0 0 0 0 0 0 0 0 0 0 0 0 0 0 0 0 0 0 0 0 0 0 0 0 0 0 0 0
0 0 0 0 0 0 0 0 0 0 0 0 0 0 0 0 0 0 0 0 0 0 0 0 0 0 0 0 0 0 0 0 0 0 0 0 0 0 0 0 0 0 0 0 0 0 0 0 0
0 0 0 0 0 0 0 0 0 0 0 0 0 0 0 0 0 0 0 0 0 0 0 0 0 0 0 0 0 0 0 0 0 0 0 0 0 0 0 0 0 0 0 0 0 0 0 0 0
0 0 0 0 0 0 0 0 0 0 0 0 0 0 0 0 0 0 0 0 0 0 0 0 0 0 0 0 0 0 0 0 0 0 0 0 0 0 0 0 0 0 0 0 0 0 0 0 0
0 0 0 0 0 0 0 0 0 0 0 0 0 0 0 0 0 0 0 0 0 0 0 0 0 0 0 0 0 0 0 0 0 0 0 0 0 0 0 0 0 0 0 0 0 0 0 0 0
0 0 0 0 0 0 0 0 0 0 0 0 0 0 0 0 0 0 0 0 0 0 0 0 0 0 0 0 0 0 0 0 0 0 0 0 0 0 0 0 0 0 0 0 0 0 0 0 0
0 0 0 0 0 0 0 0 0 0 0 0 0 0 0 0 0 0 0 0 0 0 0 0 0 0 0 0 0 0 0 0 0 0 0 0 0 0 0 0 0 0 0 0 0 0 0 0 0
0 0 0 0 0 0 0 0 0 0 0 0 0 0 0 0 0 0 0 0 0 0 0 0 0 0 0 0 0 0 0 0 0 0 0 0 0 0 0 0 0 0 0 0 0 0 0 0 0
0 0 0 0 0 0 0 0 0 0 0 0 0 0 0 0 0 0 0 0 0 0 0 0 0 0 0 0 0 0 0 0 0 0 0 0 0 0 0 0 0 0 0 0 0 0 0 0 0
0 0 0 0 0 0 0 0 0 0 0 0 0 0 0 0 0 0 0 0 0 0 0 0 0 0 0 0 0 0 0 0 0 0 0 0 0 0 0 0 0 0 0 0 0 0 0 0 0
0 0 0 0 0 0 0 0 0 0 0 0 0 0 0 0 0 0 0 0 0 0 0 0 0 0 0 0 0 0 0 0 0 0 0 0 0 0 0 0 0 0 0 0 0 0 0 0 0
0 0 0 0 0 0 0 0 0 0 0 0 0 0 0 0 0 0 0 0 0 0 0 0 0 0 0 0 0 0 0 0 0 0 0 0 0 0 0 0 0 0 0 0 0 0 0 0 0
0 0 0 0 0 0 0 0 0 0 0 0 0 0 0 0 0 0 0 0 0 0 0 0 0 1 1 0 0 0 0 0 0 0 0 0 0 0 0 0 0 0 0 0 0 0 0 0 0
0 0 0 0 0 0 0 0 0 0 0 0 0 0 0 0 0 0 0 0 0 0 0 0 0 1 1 1 0 0 0 0 0 0 0 0 0 0 0 0 0 0 0 0 0 0 0 0 0
0 0 0 0 0 0 0 0 0 0 0 0 0 0 0 0 0 0 0 0 0 0 0 0 0 1 1 1 1 1 0 0 0 0 0 0 0 0 0 0 0 0 0 0 0 0 0 0 0
0 0 0 0 0 0 0 0 0 0 0 0 0 0 0 0 0 0 0 0 0 0 0 0 0 1 1 1 1 1 1 1 0 0 0 0 0 0 0 0 0 0 0 0 0 0 0 0 0
0 0 0 0 0 0 0 0 0 0 0 0 0 0 0 0 0 0 0 0 0 0 0 0 1 1 1 1 1 1 1 1 1 1 0 0 0 0 0 0 0 0 0 0 0 0 0 0 0
0 0 0 0 0 0 0 0 0 0 0 0 0 0 0 0 0 0 0 0 0 1 1 1 1 1 1 1 1 1 1 1 1 1 1 0 0 0 0 0 0 0 0 0 0 0 0 0 0
0 0 0 0 0 0 0 0 0 0 0 0 0 0 0 0 0 0 0 1 1 1 1 1 1 1 1 1 1 1 1 1 1 1 1 1 1 1 1 1 0 0 0 0 0 0 0 0 0
0 0 0 0 0 0 0 0 0 0 0 0 0 0 0 0 1 1 1 1 1 1 1 1 1 1 1 1 1 1 1 1 1 1 1 1 1 1 1 1 1 0 0 0 0 0 0 0 0
0 0 0 0 0 0 0 0 0 0 0 0 0 0 0 1 1 1 1 1 1 1 1 1 1 1 1 1 1 1 1 1 1 1 1 1 1 1 1 1 1 0 0 0 0 0 0 0 0
Wind_Speed
10 9 6 5 2 7 12 10 9 8 8 8 8 7 9 11 9 9 6 6 7 7 8 9 10 10 10 11 11 11 11 12 12 12 12 13 13 13 13 13 13 13 13 13 12 12 12 11 11
8 6 5 2 4 9 11 9 10 10 8 7 8 9 10 10 10 8 7 7 7 7 8 9 10 10 10 10 11 11 11 11 11 11 11 12 12 12 12 12 12 12 12 12 11 12 12 11 11
6 5 3 3 9 10 10 9 11 10 7 6 7 8 8 8 7 6 8 7 6 7 9 11 9 9 10 10 10 10 10 10 10 10 10 11 11 11 11 11 11 11 11 11 10 11 11 10 10
5 4 1 8 15 13 10 9 8 9 8 7 8 9 9 7 5 8 8 7 7 8 9 12 9 9 9 9 9 9 9 9 9 10 10 10 10 10 10 10 10 10 10 10 10 10 10 10 9
4 0 7 12 14 11 10 8 6 8 7 7 8 11 10 8 9 10 9 8 8 8 8 11 10 9 9 9 9 9 9 9 9 9 9 9 9 9 10 9 9 9 9 10 10 9 9 9 9
2 1 7 12 13 10 9 8 8 11 11 10 10 11 9 8 9 8 8 7 8 8 9 10 10 9 9 9 8 8 8 8 9 9 8 8 8 8 9 9 9 9 9 9 9 9 9 9 8
2 4 10 12 11 10 8 7 8 10 10 8 6 9 9 8 8 8 8 6 7 7 8 8 8 9 9 8 8 7 7 8 8 8 7 7 8 8 8 8 8 8 8 8 8 8 8 8 7
2 3 10 10 10 10 8 8 8 8 10 8 5 7 8 9 9 8 8 7 7 6 6 6 6 6 7 8 8 7 7 7 7 6 6 6 7 8 8 8 8 7 7 7 7 7 7 7 7
2 3 9 9 8 10 9 10 8 8 10 8 7 9 12 12 10 9 8 7 7 6 5 5 6 5 5 6 7 6 6 5 6 6 6 4 4 5 6 8 8 7 7 7 7 7 7 7 8
1 6 11 9 9 10 10 9 8 8 9 9 11 12 13 11 9 8 7 8 7 6 5 4 4 4 5 4 4 2 3 4 2 3 3 2 3 3 4 10 8 7 7 7 7 6 7 6 5
6 9 10 9 10 10 10 9 7 7 8 8 11 13 12 10 8 7 7 7 6 6 5 5 3 3 3 3 2 2 2 2 3 3 2 2 1 2 3 3 6 5 6 4 7 6 3 3 2
9 10 9 10 10 9 9 8 7 7 8 9 11 12 11 10 8 7 6 6 6 5 5 4 4 3 2 2 2 1 1 1 2 3 1 1 1 1 2 2 2 2 2 2 2 1 2 3 2
9 10 10 10 9 9 9 8 8 9 9 10 12 11 10 9 8 6 6 5 4 4 4 4 3 3 2 1 1 2 1 1 2 2 2 1 1 1 2 2 1 1 2 2 2 1 2 2 3
10 11 10 9 10 8 9 8 7 9 10 11 11 10 9 8 7 6 5 5 4 4 4 4 3 3 2 1 0 1 1 1 1 1 2 2 1 1 1 1 1 1 1 1 1 2 2 2 2
11 11 10 8 7 7 7 8 7 9 10 11 10 9 8 7 7 5 5 4 4 4 3 3 3 3 2 1 1 1 1 1 1 2 2 1 1 1 0 0 1 0 1 1 1 2 2 2 2
9 8 8 7 6 5 5 7 9 9 10 9 9 8 8 7 7 5 5 4 3 3 3 2 2 3 3 2 1 1 1 1 1 1 1 1 1 1 0 0 0 0 1 1 1 2 2 1 1
8 7 8 9 6 5 4 6 9 9 9 9 8 8 8 8 7 6 5 5 4 3 3 3 2 1 2 2 1 1 1 1 1 1 1 1 1 1 1 0 0 1 1 1 2 2 2 2 2
8 7 7 8 8 7 6 6 9 10 9 9 8 8 8 8 7 7 5 5 4 4 4 3 3 2 2 2 2 1 1 0 0 1 1 1 0 1 1 1 0 1 1 1 1 2 2 2 2
6 6 7 7 7 6 5 6 9 10 9 9 9 8 8 7 7 7 6 6 6 5 4 4 3 3 2 2 1 1 1 1 1 1 1 0 1 1 1 1 0 1 0 1 2 2 3 3 3
8 8 8 7 5 4 4 5 7 9 10 9 9 9 9 9 8 8 8 7 7 6 6 5 5 4 4 2 1 1 0 0 0 0 1 1 1 1 1 1 1 0 1 1 2 2 2 2 2
9 8 8 7 7 6 5 7 8 9 10 9 9 9 9 10 10 10 9 8 8 7 7 5 5 5 5 4 3 2 2 1 1 1 1 0 1 1 2 1 2 1 2 1 2 3 4 3 2
9 7 7 8 8 6 7 5 8 10 11 12 11 11 11 11 10 10 10 9 9 8 7 7 6 6 5 5 4 3 2 1 1 1 0 0 1 1 1 1 1 2 1 1 2 2 2 3 2
6 6 7 8 7 6 7 7 5 9 10 11 12 13 12 12 11 11 11 10 9 8 7 7 7 6 6 5 4 4 3 2 1 1 0 1 0 1 1 1 1 1 1 1 2 1 2 2 2
8 8 7 8 9 8 6 8 4 6 7 8 10 11 11 11 11 11 10 9 9 8 8 7 7 7 6 6 5 5 4 3 2 2 1 2 1 1 1 1 1 1 1 1 2 2 2 2 2
11 11 8 9 8 6 4 7 3 2 3 5 7 9 10 10 11 11 11 10 10 9 9 8 8 7 7 7 6 6 5 4 4 3 2 2 1 1 1 1 1 1 1 1 1 2 2 1 1
14 14 9 6 6 5 6 6 2 3 2 3 5 6 8 9 10 10 10 10 9 10 9 9 9 8 7 7 6 5 5 4 3 3 3 2 2 1 1 1 1 1 1 1 1 1 1 1 1
13 13 9 9 7 7 5 5 4 4 5 5 5 6 8 8 9 9 9 9 9 9 9 9 9 8 7 7 6 5 5 4 3 3 3 2 2 1 1 1 1 1 1 1 1 1 1 1 1
9 10 8 9 7 8 7 7 5 8 7 6 6 7 7 8 8 8 8 8 8 8 8 8 8 7 7 6 6 5 5 4 4 3 2 2 1 1 1 1 1 1 1 1 1 1 1 1 1
10 12 10 8 8 8 6 4 3 5 5 6 6 7 8 9 8 8 7 8 8 8 8 7 7 6 5 5 5 4 4 4 4 3 3 2 2 1 1 1 1 1 1 1 0 1 1 1 1
11 12 12 10 8 8 8 2 6 4 5 5 6 7 7 7 8 7 7 8 8 8 8 7 6 6 5 5 5 4 4 3 3 2 2 2 2 2 2 1 1 1 0 0 0 0 1 0 1
Wind_Direction
176 182 210 234 180 78 70 70 80 84 72 65 62 59 62 46 44 75 85 93 96 98 99 102 86 85 86 88 92 91 91 93 96 98 101 104 105 106 106 105 106 107 108 108 108 109 109 110 111
174 190 225 240 76 83 70 68 76 73 91 92 76 74 73 65 61 91 105 105 107 102 100 90 90 86 86 88 89 90 91 93 96 97 100 104 104 105 105 105 105 106 107 108 109 111 113 114 115
178 227 272 63 61 66 77 75 84 89 93 89 80 63 60 68 76 90 104 116 111 103 98 94 94 89 87 87 87 87 88 91 97 97 99 102 104 105 105 105 106 106 109 110 110 112 114 116 118
213 209 148 73 75 68 80 90 100 104 90 85 92 83 74 57 70 99 114 120 112 103 99 98 96 93 91 88 87 87 87 91 96 100 99 102 104 105 106 106 108 108 110 113 113 113 115 119 122
238 233 91 83 78 80 81 84 91 95 90 91 92 93 82 70 89 105 112 111 106 100 99 100 96 94 93 89 85 85 87 94 98 101 100 102 104 105 108 108 108 108 110 112 114 115 115 119 126
231 133 86 86 88 88 86 89 92 92 98 97 99 95 84 97 103 105 104 100 100 101 101 104 105 98 94 89 85 84 84 94 99 100 102 102 101 102 107 110 110 111 112 113 116 120 120 122 129
17 69 84 93 98 93 86 91 90 100 98 88 94 97 105 107 104 107 106 107 98 100 104 108 119 116 108 92 84 84 84 91 100 101 105 108 107 108 112 115 115 113 114 116 118 121 121 124 130
344 100 96 92 96 94 101 98 91 89 90 92 85 105 119 122 122 118 112 105 94 91 93 103 99 105 119 115 98 87 86 93 105 107 111 119 134 133 133 138 117 112 113 119 122 122 123 123 129
238 100 87 87 94 104 117 112 97 95 101 88 75 89 113 125 128 125 122 119 112 104 98 98 105 107 101 99 109 120 118 115 145 135 137 166 143 127 140 108 112 114 113 115 118 124 127 135 138
84 76 75 78 94 111 117 111 118 121 109 105 102 103 119 132 137 136 133 126 125 120 116 107 100 102 99 92 103 113 113 107 101 95 116 121 104 107 110 117 123 121 124 130 129 140 161 185 152
74 81 92 95 101 113 116 111 115 121 111 121 129 131 136 138 141 138 128 122 119 120 118 116 106 82 79 91 90 73 77 86 92 87 89 95 122 126 124 129 137 141 151 141 145 172 168 143 123
98 91 98 103 111 116 112 113 106 90 89 111 129 136 141 145 144 138 129 124 120 119 119 118 114 109 70 36 73 96 84 78 69 92 69 94 85 76 94 100 110 132 122 113 120 133 119 121 137
107 102 101 106 114 111 110 103 99 97 101 114 127 138 144 144 141 136 130 131 124 128 127 116 113 104 94 68 329 64 49 47 73 50 74 52 74 69 84 94 100 116 119 147 147 126 129 145 159
112 117 116 116 117 122 115 108 108 108 121 127 136 144 148 146 148 145 144 147 145 140 129 122 133 124 117 127 106 47 63 80 53 67 71 56 64 69 68 109 112 123 145 109 156 144 152 171 160
131 130 127 126 132 138 139 117 112 126 137 138 143 146 149 156 161 161 155 158 156 143 131 132 144 129 119 103 87 94 67 79 70 71 69 53 40 49 35 117 192 133 142 155 175 160 169 182 175
159 160 143 136 148 159 202 118 128 147 150 148 152 154 160 168 176 173 168 168 162 152 138 141 146 133 131 116 58 62 43 52 57 63 63 53 28 2 311 219 174 203 196 176 172 188 183 174 186
183 174 144 141 160 165 190 124 138 159 162 161 165 167 172 173 182 183 184 176 169 162 152 154 147 135 135 133 139 131 94 36 29 67 44 43 18 335 291 327 36 239 201 197 228 156 188 179 185
173 167 155 151 157 177 176 144 149 168 177 173 173 176 181 184 184 184 185 182 176 171 170 176 168 163 171 159 151 141 103 131 90 56 45 359 341 349 321 214 256 271 204 185 212 179 186 196 199
176 173 158 142 147 183 181 169 167 175 188 186 184 184 187 190 184 180 182 188 185 184 184 188 184 166 177 178 193 165 151 158 135 120 69 353 334 21 299 306 175 267 231 232 217 208 187 191 185
188 184 166 146 156 198 188 188 178 186 199 198 194 194 192 187 188 188 191 193 193 189 192 188 190 184 188 178 188 196 87 217 133 86 87 330 322 302 243 280 267 258 228 219 219 215 221 203 198
197 201 186 167 169 200 208 196 188 191 205 206 206 205 200 197 195 193 195 199 198 193 193 192 191 187 191 188 187 178 179 211 187 177 159 327 309 308 318 296 289 275 245 212 218 214 222 224 207
198 203 199 182 199 190 226 225 184 191 201 207 207 206 204 200 199 199 198 198 200 194 187 190 187 188 188 193 204 209 219 232 230 259 179 263 297 305 294 285 281 267 258 238 238 207 234 239 230
193 179 200 204 222 226 211 252 181 179 202 206 205 204 204 201 199 199 199 196 196 191 184 186 184 186 188 195 198 213 229 234 224 223 186 271 278 286 293 284 272 265 253 250 267 246 250 246 257
155 165 184 217 232 232 224 248 217 185 202 200 195 196 200 200 197 196 194 190 191 189 186 185 180 185 188 194 203 212 226 236 243 244 239 236 229 251 272 266 268 268 277 252 243 238 231 254 271
195 197 201 208 214 221 200 242 240 145 190 210 199 192 192 194 193 192 189 189 190 187 186 186 182 186 189 194 203 210 219 221 224 240 232 251 247 237 251 281 274 277 265 238 230 222 239 240 245
208 220 231 233 225 201 184 232 209 122 169 206 201 190 184 187 190 190 189 189 187 185 184 185 185 189 189 193 202 210 214 219 225 228 247 248 265 280 291 261 262 276 271 243 215 231 220 220 225
204 223 242 250 248 251 206 206 198 172 173 175 176 175 177 178 180 183 183 185 183 183 184 186 184 186 188 192 195 200 205 216 228 223 225 235 243 242 225 238 226 237 255 268 240 251 250 223 233
233 214 215 235 245 242 223 220 211 176 178 172 166 170 172 169 165 164 168 173 175 176 178 180 180 182 185 185 192 188 196 203 209 217 219 232 238 250 249 233 229 234 260 260 261 253 249 230 216
193 207 225 231 246 253 242 209 139 175 177 179 172 165 166 164 158 156 158 159 162 161 163 168 171 174 177 180 181 187 188 191 192 200 209 210 212 196 199 204 224 227 226 240 247 285 264 234 201
221 218 215 223 223 245 262 166 111 161 172 172 164 157 153 155 152 152 153 152 154 156 158 160 162 166 168 167 167 174 181 185 183 180 185 186 185 178 168 177 192 204 169 153 172 262 288 264 140